Regional Weather Roundup
Issued by NWS Goodland, KS

Home | Current Version | Previous Version | Graphics & Text | Print | Product List | Glossary On
Versions: 1 2 3 4 5 6 7 8 9 10 11 12 13 14 15 16 17 18 19 20 21 22 23 24 25 26 27 28 29 30 31 32 33 34 35 36 37 38 39 40 41 42 43 44 45 46 47 48 49 50
000
ASUS43 KGLD 282159
RWRGLD

GOODLAND FORECAST AREA HOURLY WEATHER ROUNDUP
NATIONAL WEATHER SERVICE GOODLAND KS
400 PM MDT SAT MAR 28 2015

...OFFICIAL OBSERVATIONS...

CITY           SKY/WX    TMP DP  RH WIND       PRES   REMARKS
GOODLAND KS    SUNNY     81  22  11 SW14G24   29.90F
HILL CITY KS   SUNNY     75  37  25 SE14      29.93F
IMPERIAL NEB     N/A     81  29  15 S13       29.83F
MCCOOK NEB     SUNNY     81  33  17 S15G22    29.87F
AKRON CO       SUNNY     79  23  12 SW16      29.90F
BURLINGTON CO  SUNNY     79  20  11 W10       29.94F
LIMON CO       SUNNY     75  17  11 W12G25    29.97F
$$

...UNOFFICIAL OBSERVATIONS...

CITY           SKY/WX    TMP DP  RH WIND       PRES   REMARKS
COLBY KS       SUNNY     81  37  21 SE9G16    29.91F
GOVE KS          N/A     78  32  18 MISG        N/A
LENORA KS        N/A     73  32  22 MISG        N/A
NORTON KS      SUNNY     73  28  19 SE12      29.92F
SHARON SPRINGS   N/A     82  31  16 SW7G14      N/A
KIT CARSON CO    N/A     78  30  17 MISG        N/A
YUMA CO          N/A     79  26  14 SW17        N/A
$$


USA.gov is the U.S. government's official web portal to all federal, state and local government web resources and services.